This is the latest recevied weather packets stored in our database for station/object WX7FGZ-6. If no packets are shown the sender has not sent any weather packets the latest 10 day(s).
| Time | Temp. | Humidity | Pressure | Rain* | Wind** | Luminosity | Snow |
|---|---|---|---|---|---|---|---|
| 1777930901 | 4.44° C | 57% | 1017.2 hPa | 0 mm | - | - | - |
| 1777930400 | 3.89° C | 59% | 1017.1 hPa | 0 mm | - | - | - |
| 1777930105 | 3.89° C | 58% | 1017.3 hPa | 0 mm | - | - | - |
| 1777930100 | 3.89° C | 59% | 1017.2 hPa | 0 mm | - | - | - |
| 1777929800 | 3.89° C | 58% | 1017.3 hPa | 0 mm | - | - | - |
| 1777929500 | 3.33° C | 60% | 1017.5 hPa | 0 mm | - | - | - |
| 1777929200 | 3.33° C | 61% | 1017.4 hPa | 0 mm | - | - | - |
| 1777928900 | 3.33° C | 56% | 1017.4 hPa | 0 mm | - | - | - |
| 1777928600 | 3.89° C | 59% | 1017.3 hPa | 0 mm | - | - | - |
| 1777928300 | 3.89° C | 57% | 1017.2 hPa | 0 mm | - | - | - |
| 1777928000 | 3.33° C | 59% | 1017.4 hPa | 0 mm | - | - | - |
| 1777927700 | 3.33° C | 63% | 1017.3 hPa | 0 mm | - | - | - |
| 1777927400 | 3.89° C | 60% | 1017.4 hPa | 0 mm | - | - | - |
| 1777927100 | 3.33° C | 58% | 1017.2 hPa | 0 mm | - | - | - |
| 1777926801 | 3.89° C | 54% | 1017.6 hPa | 0 mm | - | - | - |
| 1777926490 | 3.89° C | 56% | 1017.3 hPa | 0 mm | - | - | - |
| 1777926190 | 3.89° C | 59% | 1017.4 hPa | 0 mm | - | - | - |
| 1777925890 | 3.33° C | 64% | 1018 hPa | 0 mm | - | - | - |
| 1777925590 | 3.89° C | 61% | 1018.1 hPa | 0 mm | - | - | - |
| 1777925290 | 4.44° C | 59% | 1017.9 hPa | 0 mm | - | - | - |
| 1777924990 | 4.44° C | 60% | 1018 hPa | 0 mm | - | - | - |
| 1777924690 | 4.44° C | 58% | 1017.8 hPa | 0 mm | - | - | - |
| 1777924390 | 3.89° C | 58% | 1018.4 hPa | 0 mm | - | - | - |
| 1777924090 | 4.44° C | 55% | 1018.6 hPa | 0 mm | - | - | - |
| 1777923790 | 4.44° C | 56% | 1018.4 hPa | 0 mm | - | - | - |
* Rain latest hour (hover to see other rain measurements)
** Current wind speed in m/s (hover to see current wind gust speed)